FW6759 Weather Reports


time (UTC)temp
C
wind
direction
speed
KPH
gust
KPH
rain 1hr
cm
rain 24hr
cm
rain mn
cm
humidity
%
barometer
mb
20260504050005 -1 0 0.0 0.0 0.00 0.03 0.00 72 1017.5
20260504045005 -2 0 0.0 0.0 0.00 0.03 0.00 79 1017.2
20260504044004 -2 0 0.0 0.0 0.00 0.03 0.00 78 1017.3
20260504043006 -2 0 0.0 0.0 0.00 0.03 0.00 79 1017.2
20260504042005 -2 0 0.0 0.0 0.00 0.03 0.00 80 1017.2
20260504041005 -2 0 0.0 0.0 0.00 0.03 0.00 81 1017.1
20260504040005 -2 0 0.0 0.0 0.00 0.03 0.00 81 1017.0
20260504035005 -2 0 0.0 0.0 0.00 0.03 0.00 81 1016.9
20260504034005 -2 0 0.0 0.0 0.00 0.03 0.00 80 1016.6
20260504033004 -2 0 0.0 0.0 0.00 0.03 0.00 79 1016.6
20260504032005 -2 0 0.0 0.0 0.00 0.03 0.00 79 1016.7
20260504030005 -2 0 0.0 0.0 0.00 0.03 0.00 79 1016.8
20260504025004 -2 0 0.0 0.0 0.00 0.03 0.00 76 1016.7
20260504024006 -2 0 0.0 0.0 0.00 0.03 0.00 80 1017.0
20260504022004 -2 0 0.0 0.0 0.00 0.03 0.00 88 1017.2
20260504021004 -2 0 0.0 0.0 0.00 0.03 0.00 86 1017.1
20260504020004 -2 0 0.0 0.0 0.00 0.03 0.00 87 1017.4
20260504015004 -2 0 0.0 0.0 0.00 0.03 0.00 88 1017.3
20260504014004 -2 0 0.0 0.0 0.00 0.03 0.00 89 1017.2
20260504013004 -2 0 0.0 0.0 0.00 0.03 0.00 87 1017.3
20260504012004 -2 0 0.0 0.0 0.00 0.03 0.00 86 1017.1
20260504011004 -2 0 0.0 0.0 0.00 0.03 0.00 87 1017.2
20260504010004 -2 0 0.0 0.0 0.00 0.03 0.00 84 1017.2
20260504005004 -2 0 0.0 0.0 0.00 0.03 0.00 85 1017.2
20260504002004 -2 0 0.0 0.0 0.00 0.03 0.00 77 1017.0
20260504001004 -2 0 0.0 0.0 0.00 0.03 0.00 79 1017.2
20260504000005 -2 0 0.0 0.0 0.00 0.03 0.00 79 1017.2
20260503235005 -2 0 0.0 0.0 0.00 0.03 0.00 76 1017.2
20260503234005 -2 0 0.0 0.0 0.00 0.03 0.00 73 1017.1
20260503232004 -2 0 0.0 0.0 0.00 0.03 0.00 80 1017.2
20260503231004 -2 0 0.0 0.0 0.00 0.03 0.00 83 1017.3
20260503230004 -2 0 0.0 0.0 0.00 0.03 0.00 84 1017.5
20260503225004 -2 0 0.0 0.0 0.00 0.03 0.00 79 1017.3
20260503224004 -2 0 0.0 0.0 0.00 0.03 0.00 79 1017.0
20260503222004 -2 0 0.0 0.0 0.00 0.03 0.00 79 1016.8
20260503220007 -2 0 0.0 0.0 0.00 0.03 0.00 82 1017.1
20260503215007 -2 0 0.0 0.0 0.00 0.03 0.00 82 1016.8
20260503214007 -2 0 0.0 0.0 0.00 0.03 0.00 82 1016.7
20260503213007 -2 0 0.0 0.0 0.00 0.03 0.00 83 1016.7
20260503211007 -2 0 0.0 0.0 0.00 0.03 0.00 85 1016.6
20260503210008 -2 0 0.0 0.0 0.00 0.03 0.00 85 1016.6
20260503205008 -2 0 0.0 0.0 0.00 0.03 0.03 85 1016.5
20260503204008 -2 0 0.0 0.0 0.00 0.03 0.03 86 1016.7
20260503203007 -2 0 0.0 0.0 0.00 0.03 0.03 88 1016.6
20260503202007 -2 0 0.0 0.0 0.00 0.03 0.03 90 1016.5
20260503195007 -3 0 0.0 0.0 0.00 0.03 0.03 92 1016.8
20260503194007 -3 0 0.0 0.0 0.00 0.03 0.03 92 1016.8
20260503193007 -3 0 0.0 0.0 0.00 0.03 0.03 92 1016.4
20260503192007 -3 0 0.0 0.0 0.00 0.03 0.03 92 1016.7
20260503191007 -3 0 0.0 0.0 0.00 0.03 0.03 92 1016.5
20260503190007 -3 0 0.0 0.0 0.00 0.03 0.03 92 1016.3
20260503185007 -3 0 0.0 0.0 0.00 0.03 0.03 92 1015.9
20260503184007 -3 0 0.0 0.0 0.00 0.03 0.03 92 1015.8
20260503183007 -3 0 0.0 0.0 0.00 0.03 0.03 92 1015.8
20260503182007 -3 0 0.0 0.0 0.00 0.03 0.03 92 1015.3
20260503180007 -3 0 0.0 0.0 0.00 0.03 0.03 92 1015.4
20260503174007 -3 0 0.0 0.0 0.00 0.03 0.03 92 1015.5
20260503173007 -3 0 0.0 0.0 0.00 0.03 0.03 92 1015.5
20260503172007 -3 0 0.0 0.0 0.00 0.03 0.03 92 1015.8
20260503151008 -2 0 0.0 0.0 0.00 0.03 0.03 92 1014.1
20260503081007 -2 0 0.0 0.0 0.00 0.00 0.00 93 1014.2
20260503072007 -2 0 0.0 0.0 0.00 0.00 0.00 93 1014.4
20260503071007 -2 0 0.0 0.0 0.00 0.00 0.00 93 1013.8
20260503055007 -2 0 0.0 0.0 0.00 0.00 0.00 93 1013.9
20260503054007 -2 0 0.0 0.0 0.00 0.00 0.00 93 1014.1
20260503053007 -2 0 0.0 0.0 0.00 0.00 0.00 93 1014.0
20260503052007 -2 0 0.0 0.0 0.00 0.00 0.00 93 1014.2